Regional Weather Roundup
Issued by NWS Cleveland, OH

Home | Current Version | Previous Version | Text Only | Print | Product List | Glossary Off
Versions: 1 2 3 4 5 6 7 8 9 10 11 12 13 14 15 16 17 18 19 20 21 22 23 24 25 26 27 28 29 30 31 32 33 34 35 36 37 38 39 40 41 42 43 44 45 46 47 48 49 50

000
ASUS41 KCLE 280302
RWRCLE
OHIO REGIONAL WEATHER ROUNDUP
NATIONAL WEATHER SERVICE CLEVELAND, OH
1000 PM EST TUE JAN 27 2015

NOTE: "FAIR" INDICATES FEW OR NO CLOUDS BELOW 12,000 FEET WITH NO
SIGNIFICANT WEATHER AND/OR OBSTRUCTIONS TO VISIBILITY.

OHZ001>008-015>018-024>027-034-035-043-044-280400-
   NORTHWEST OHIO

CITY           SKY/WX    TMP DP  RH WIND       PRES   REMARKS
DEFIANCE       CLEAR     17   9  70 N5        30.24R WCI  10
FINDLAY        PTCLDY    12   7  80 W6        30.20R WCI   3
TOLEDO EXPRESS CLEAR     18  10  71 N5        30.22S WCI  11
TOLEDO EXEC    CLEAR     21  10  62 N6        30.23R WCI  13
LIMA           MOCLDY    13   8  81 W5        30.20S WCI   5
$$

OHZ009>014-019>023-028>033-038-089-280400-
   NORTHEAST OHIO

CITY           SKY/WX    TMP DP  RH WIND       PRES   REMARKS
CLE-HOPKINS    PTCLDY    17  12  80 NW5       30.20R WCI  10
CLE-LAKEFRONT  CLEAR     15  11  83 SW3       30.18S
CUY CO. ARPT   PTCLDY    19  16  86 N8        30.16S WCI   9
LORAIN-ELYRIA  PTCLDY    16  12  84 N7        30.18S WCI   6
ASHTABULA      CLOUDY    15  10  80 NW6       30.13S WCI   6
AKRON-CANTON   PTCLDY    17  11  77 N13       30.13R WCI   4
WOOSTER        MOCLDY    14  10  84 N9        30.15S WCI   2
MANSFIELD      PTCLDY    10   6  84 NW6       30.15R WCI   0
YOUNGSTOWN     FLURRIES  14  10  84 NW3       30.10S
$$

OHZ042-051>053-060>062-070>072-077>081-280400-
  SOUTHWEST OHIO

CITY           SKY/WX    TMP DP  RH WIND       PRES   REMARKS
CINC-COVINGTON CLEAR     21  12  68 N10       30.23R WCI  10
CINC-LUNKEN    FAIR      20  12  71 N6        30.28R WCI  12
HAMILTON       CLEAR     15  12  88 CALM      30.26S
DAYTON         PTCLDY    11   9  92 W3        30.22S FOG
WRIGHT-PAT AFB NOT AVBL
DAYTON GENERAL CLEAR     17  11  77 CALM      30.21S
WILMINGTON     CLEAR     15   9  76 NW5       30.21R WCI   8
$$

OHZ036-037-039>041-045>050-054>059-063>069-073>076-082>088-280400-
  CENTRAL AND SOUTHEAST OHIO

CITY           SKY/WX    TMP DP  RH WIND       PRES   REMARKS
COLUMBUS       CLEAR     14   9  80 W5        30.20S WCI   6
OSU AIRPORT    PTCLDY    12   9  87 W6        30.19F WCI   3
BOLTON FIELD   NOT AVBL
RICKENBACK AFB NOT AVBL
NEWARK         CLEAR      8   5  87 CALM      30.18S
MARION         MOCLDY     6   2  83 CALM      30.19S FOG
LANCASTER      CLEAR      7   3  84 CALM      30.20S
ZANESVILLE     CLEAR     14   8  77 W6        30.17R WCI   5
NEW PHILLY     PTCLDY    16   9  74 NW7       30.17R WCI   6
$$



USA.gov is the U.S. government's official web portal to all federal, state and local government web resources and services.